Weather History for VTBU - October, 2014

Change the Weather History Date:

Friday, October 24, 2014

  Actual Average Record
Temperature  
Mean Temperature 80 °F -  
Max Temperature 87 °F 87 °F 93 °F (2007)
Min Temperature 73 °F 76 °F 73 °F (2014)
Cooling Degree Days 15    
Growing Degree Days 30 (Base 50)    
Moisture  
Dew Point 75 °F    
Average Humidity 85    
Maximum Humidity 100    
Minimum Humidity 61    
Precipitation  
Precipitation 0.12 in - - ()
Sea Level Pressure  
Sea Level Pressure 29.83 in    
Wind  
Wind Speed 3 mph ()    
Max Wind Speed 10 mph    
Max Gust Speed -    
Visibility 3.7 miles    
Events Rain , Thunderstorm    
Averages and records for this station are not official NWS values.
T = Trace of Precipitation, MM = Missing Value Source: Averaged Metar Reports

Daily Weather History Graph

Daily Weather History Graph

Search for Another Location

Airport or City:

Trip Planner

Search our weather history database for the weather conditions in past years. The results will help you decide how hot, cold, wet, or windy it might be!

Date:

Astronomy

Oct. 24, 2014 Rise Set
Actual Time 6:07 AM ICT 5:52 PM ICT
Civil Twilight 5:45 AM ICT 6:14 PM ICT
Nautical Twilight 5:20 AM ICT 6:39 PM ICT
Astronomical Twilight 4:55 AM ICT 7:04 PM ICT
Moon 6:14 AM ICT (10/24) 6:15 PM ICT (10/24)
Length of Visible Light 12h 28m
Length of Day
11h 45m
New Moon, 0% of the Moon is Illuminated
Oct 24
New Moon
Oct 31
First Quarter
Nov 7
Full
Nov 14
Last Quarter
Nov 22
New

Hourly Weather History & Observations

Time (ICT) Temp. Heat Index Dew Point Humidity Pressure Visibility Wind Dir Wind Speed Gust Speed Precip Events Conditions
12:00 AM 77.0 °F - 75.2 °F 94% 29.89 in 1.9 mi NNW 3.5 mph - N/A   Mostly Cloudy
12:30 AM 77.0 °F - 75.2 °F 94% 29.86 in 1.9 mi North 5.8 mph - N/A   Mostly Cloudy
1:00 AM 78 °F - 76 °F 91% 29.86 in 5 mi Calm Calm - -   Mist
1:00 AM 77.0 °F - 75.2 °F 94% 29.86 in 1.9 mi NNW 2.3 mph - N/A   Mostly Cloudy
1:30 AM 77.0 °F - 75.2 °F 94% 29.86 in 1.9 mi Calm Calm - N/A   Mostly Cloudy
2:00 AM 77.0 °F - 75.2 °F 94% 29.83 in 1.9 mi Calm Calm - N/A   Mostly Cloudy
2:30 AM 77.0 °F - 75.2 °F 94% 29.83 in 1.9 mi Calm Calm - N/A   Mostly Cloudy
3:00 AM 77.0 °F - 75.2 °F 94% 29.83 in 1.9 mi Calm Calm - N/A   Mostly Cloudy
3:30 AM 77.0 °F - 75.2 °F 94% 29.80 in 1.2 mi Calm Calm - N/A   Mostly Cloudy
4:00 AM 77 °F - 75 °F 92% 29.83 in 4 mi Calm Calm - -   Mist
4:00 AM 77.0 °F - 75.2 °F 94% 29.80 in 1.2 mi Calm Calm - N/A   Mostly Cloudy
4:30 AM 77.0 °F - 75.2 °F 94% 29.80 in 1.2 mi Calm Calm - N/A   Mostly Cloudy
5:00 AM 77.0 °F - 75.2 °F 94% 29.80 in 1.2 mi Calm Calm - N/A   Mostly Cloudy
5:30 AM 77.0 °F - 75.2 °F 94% 29.80 in 1.2 mi Calm Calm - N/A   Mostly Cloudy
6:00 AM 75.2 °F - 73.4 °F 94% 29.83 in 1.2 mi North 3.5 mph - N/A   Mostly Cloudy
6:30 AM 75.2 °F - 73.4 °F 94% 29.83 in 1.9 mi North 2.3 mph - N/A   Mostly Cloudy
7:00 AM 77 °F - 75 °F 92% 29.87 in 4 mi Calm Calm - -   Mist
7:00 AM 75.2 °F - 73.4 °F 94% 29.86 in 1.9 mi NNW 3.5 mph - N/A   Mostly Cloudy
7:30 AM 78.8 °F - 75.2 °F 89% 29.86 in 2.5 mi NNE 3.5 mph - N/A   Mostly Cloudy
8:00 AM 82.4 °F 90.9 °F 77.0 °F 84% 29.86 in 3.1 mi NE 3.5 mph - N/A   Mostly Cloudy
8:30 AM 84.2 °F 92.3 °F 75.2 °F 74% 29.86 in 4.3 mi NNE 4.6 mph - N/A   Mostly Cloudy
9:00 AM 82.4 °F 89.5 °F 75.2 °F 79% 29.89 in 5.0 mi ENE 3.5 mph - N/A   Mostly Cloudy
9:30 AM 82.4 °F 89.5 °F 75.2 °F 79% 29.89 in 5.6 mi East 3.5 mph - N/A   Mostly Cloudy
10:00 AM 84 °F - 76 °F 71% 29.90 in 5 mi Calm Calm - -   Mist
10:00 AM 82.4 °F 89.5 °F 75.2 °F 79% 29.89 in 6.2 mi ENE 3.5 mph - N/A   Mostly Cloudy
10:30 AM 82.4 °F 88.2 °F 73.4 °F 74% 29.89 in 6.2 mi South 3.5 mph - N/A Thunderstorm Thunderstorm
11:00 AM 84.2 °F 92.3 °F 75.2 °F 74% 29.86 in 6.2 mi SSE 3.5 mph - N/A Thunderstorm Thunderstorm
11:30 AM 86.0 °F 96.9 °F 77.0 °F 74% 29.86 in 6.2 mi SSW 6.9 mph - N/A Thunderstorm Thunderstorm
12:00 PM 84.2 °F 92.3 °F 75.2 °F 74% 29.83 in 6.2 mi WSW 6.9 mph - N/A Thunderstorm Thunderstorm
12:30 PM 87.8 °F 97.6 °F 75.2 °F 66% 29.80 in 6.2 mi WNW 4.6 mph - N/A   Mostly Cloudy
1:00 PM 86 °F - 74 °F 61% 29.82 in 4 mi SSW 4.6 mph - -   Mist
1:00 PM 86.0 °F 95.1 °F 75.2 °F 70% 29.80 in 6.2 mi WSW 4.6 mph - N/A   Mostly Cloudy
1:30 PM 86.0 °F 95.1 °F 75.2 °F 70% 29.80 in 5.6 mi WSW 4.6 mph - N/A   Mostly Cloudy
2:30 PM 86.0 °F 95.1 °F 75.2 °F 70% 29.74 in 5.6 mi SW 4.6 mph - N/A   Mostly Cloudy
3:00 PM 84.2 °F 94.1 °F 77.0 °F 79% 29.74 in 5.6 mi SW 4.6 mph - N/A   Mostly Cloudy
3:30 PM 86.0 °F 96.9 °F 77.0 °F 74% 29.74 in 5.6 mi SW 3.5 mph - N/A   Mostly Cloudy
4:00 PM 85 °F - 76 °F 69% 29.77 in 4 mi SSW 3.5 mph - -   Mist
4:00 PM 86.0 °F 96.9 °F 77.0 °F 74% 29.74 in 5.0 mi NNW 5.8 mph - N/A   Mostly Cloudy
4:30 PM 86.0 °F 95.1 °F 75.2 °F 70% 29.74 in 5.0 mi NW 3.5 mph - N/A   Mostly Cloudy
5:00 PM 86.0 °F 96.9 °F 77.0 °F 74% 29.74 in 5.0 mi NW 6.9 mph - N/A Thunderstorm Thunderstorm
5:30 PM 84.2 °F 94.1 °F 77.0 °F 79% 29.74 in 5.0 mi WNW 6.9 mph - N/A Thunderstorm Thunderstorm
6:00 PM 82.4 °F 90.9 °F 77.0 °F 84% 29.77 in 4.3 mi West 4.6 mph - N/A Thunderstorm Thunderstorm
6:30 PM 75.2 °F - 73.4 °F 94% 29.80 in - North - - N/A Rain , Thunderstorm Light Thunderstorms and Rain
7:00 PM 82 °F - 77 °F 80% 29.82 in 4 mi Calm Calm - - Thunderstorm Thunderstorm
7:00 PM 73.4 °F - 71.6 °F 94% 29.83 in 2.5 mi North 6.9 mph - N/A Rain , Thunderstorm Light Thunderstorms and Rain
7:30 PM 73.4 °F - 71.6 °F 94% 29.83 in 2.5 mi NNW 4.6 mph - N/A Rain , Thunderstorm Light Thunderstorms and Rain
8:00 PM 75.2 °F - 73.4 °F 94% 29.83 in 3.1 mi NNW 5.8 mph - N/A Rain , Thunderstorm Light Thunderstorms and Rain
8:30 PM 75.2 °F - 73.4 °F 94% 29.86 in 3.1 mi North 10.4 mph - N/A Thunderstorm Thunderstorm
9:00 PM 75.2 °F - 73.4 °F 94% 29.86 in 3.1 mi North 5.8 mph - N/A Rain , Thunderstorm Light Thunderstorms and Rain
9:30 PM 75.2 °F - 75.2 °F 100% 29.86 in 3.1 mi North 6.9 mph - N/A Rain , Thunderstorm Light Thunderstorms and Rain
10:00 PM 80 °F - 76 °F 82% 29.88 in 4 mi Calm Calm - - Rain , Thunderstorm Thunderstorms and Rain
10:30 PM 75.2 °F - 75.2 °F 100% 29.86 in 3.1 mi Calm Calm - N/A   Mostly Cloudy
11:00 PM 75.2 °F - 75.2 °F 100% 29.86 in 3.1 mi Calm Calm - N/A   Mostly Cloudy
11:30 PM 75.2 °F - 75.2 °F 100% 29.86 in 3.1 mi Calm Calm - N/A   Mostly Cloudy